This is the latest recevied weather packets stored in our database for station/object N5YHM-13. If no packets are shown the sender has not sent any weather packets the latest 10 day(s).
| Time | Temp. | Humidity | Pressure | Rain* | Wind** | Luminosity | Snow |
|---|---|---|---|---|---|---|---|
| 1777917988 | 24.44° C | 47% | 1019 hPa | 0 mm | - | 13 W/m² | - |
| 1777917687 | 23.89° C | 47% | 1019.2 hPa | 0 mm | - | 12 W/m² | - |
| 1777917384 | 23.89° C | 43% | 1019.3 hPa | 0 mm | - | 12 W/m² | - |
| 1777917080 | 24.44° C | 47% | 1019.2 hPa | 0 mm | - | 11 W/m² | - |
| 1777916778 | 24.44° C | 46% | 1019.5 hPa | 0 mm | - | 11 W/m² | - |
| 1777916474 | 23.89° C | 46% | 1019.4 hPa | 0 mm | - | 11 W/m² | - |
| 1777916171 | 23.89° C | 44% | 1019.6 hPa | 0 mm | - | 11 W/m² | - |
| 1777915869 | 23.89° C | 49% | 1019.3 hPa | 0 mm | - | 10 W/m² | - |
| 1777915565 | 23.89° C | 46% | 1019.3 hPa | 0 mm | - | 15 W/m² | - |
| 1777915262 | 23.89° C | 48% | 1019.2 hPa | 0 mm | - | 10 W/m² | - |
| 1777914958 | 23.89° C | 49% | 1019 hPa | 0 mm | - | 10 W/m² | - |
| 1777914655 | 23.89° C | 45% | 1019.3 hPa | 0 mm | - | 10 W/m² | - |
| 1777914351 | 23.89° C | 45% | 1019.4 hPa | 0 mm | - | 10 W/m² | - |
| 1777914049 | 23.33° C | 47% | 1019.3 hPa | 0 mm | - | 10 W/m² | - |
| 1777913744 | 23.33° C | 47% | 1019.3 hPa | 0 mm | - | 9 W/m² | - |
| 1777913442 | 23.33° C | 46% | 1019.5 hPa | 0 mm | - | 11 W/m² | - |
| 1777913138 | 23.33° C | 47% | 1019.4 hPa | 0 mm | - | 9 W/m² | - |
| 1777912835 | 23.33° C | 48% | 1019.7 hPa | 0 mm | - | 9 W/m² | - |
| 1777912531 | 22.78° C | 47% | 1019.6 hPa | 0 mm | - | 10 W/m² | - |
| 1777912227 | 22.78° C | 49% | 1019.7 hPa | 0 mm | - | 9 W/m² | - |
| 1777911924 | 22.78° C | 51% | 1019.6 hPa | 0 mm | - | 11 W/m² | - |
| 1777911614 | 22.78° C | 49% | 1019.5 hPa | 0 mm | - | 11 W/m² | - |
| 1777911310 | 23.33° C | 48% | 1019.7 hPa | 0 mm | - | 9 W/m² | - |
| 1777911008 | 22.78° C | 48% | 1019.6 hPa | 0 mm | - | 20 W/m² | - |
| 1777910706 | 22.78° C | 50% | 1019.8 hPa | 0 mm | - | 9 W/m² | - |
* Rain latest hour (hover to see other rain measurements)
** Current wind speed in m/s (hover to see current wind gust speed)